Regional Weather Roundup
Issued by NWS

Home | Current Version | Previous Version | Graphics & Text | Print | Product List | Glossary On
Versions: 1 2 3 4 5 6 7 8 9 10 11 12 13 14 15 16 17 18 19 20 21 22 23 24 25 26 27 28 29 30 31 32 33 34 35 36 37 38 39 40 41 42 43 44 45 46 47 48 49 50
000
ASUS43 KFSD 070202
RWRSD

WEATHER ROUNDUP FOR SOUTH DAKOTA
NATIONAL WEATHER SERVICE SIOUX FALLS SD
900 PM CDT WED MAY 06 2015

NOTE: "FAIR" INDICATES FEW OR NO CLOUDS BELOW 12,000 FEET WITH NO
SIGNIFICANT WEATHER AND/OR OBSTRUCTIONS TO VISIBILITY.


SDZ001>005-009-010-012>017-070300-
NORTHWEST AND NORTH CENTRAL SOUTH DAKOTA

CITY           SKY/WX    TMP DP  RH WIND       PRES   REMARKS
BUFFALO          N/A     51  47  86 NW28G35   29.64R
MOBRIDGE       LGT RAIN  61  59  93 S3        29.58R
$$

SDZ012>016-024>037-041>051-057-063-072>074-070300-
SOUTHWEST AND SOUTH CENTRAL SOUTH DAKOTA

CITY           SKY/WX    TMP DP  RH WIND       PRES   REMARKS
RAPID CTY ARPT LGT RAIN  51  47  86 NW28G40   29.66R
PIERRE         MOCLDY    57  53  86 W8        29.58S
CUSTER         LGT RAIN  46  41  82 N13G23    29.72R
PHILIP         LGT RAIN  59  58  96 CALM      29.60R
PINE RIDGE     LGT RAIN  56  53  90 N3        29.63R
WINNER         RAIN      62  57  83 S12G22    29.61R
$$

SDZ004>011-016>023-039-040-070300-
NORTHEAST SOUTH DAKOTA

CITY           SKY/WX    TMP DP  RH WIND       PRES   REMARKS
ABERDEEN       CLOUDY    62  58  86 S8        29.63R
WATERTOWN      MOCLDY    64  59  83 S16G29    29.69S
BROOKINGS      MOCLDY    64  61  88 S16G24    29.71S
SISSETON         N/A     65  62  90 S14       29.66R
$$

SDZ017-020-022-023-036>040-048>070-070300-
SOUTHEAST SOUTH DAKOTA

CITY           SKY/WX    TMP DP  RH WIND       PRES   REMARKS
SIOUX FALLS    MOCLDY    67  59  75 SE21G29   29.69F
HURON          LGT RAIN  66  61  84 S17G24    29.63R
MITCHELL       LGT RAIN  65  63  93 SE14G23   29.64S
YANKTON        CLOUDY    66  61  82 SE21G29   29.62F
$$

ABBREVIATIONS USED IN REMARKS
   TC - TEMPERATURE IN CELSIUS
  WCI - WIND CHILL INDEX
   HX - HEAT INDEX
  VSB - VISIBILITY




USA.gov is the U.S. government's official web portal to all federal, state and local government web resources and services.